Regional Weather Roundup
Issued by NWS

Home | Current Version | Previous Version | Text Only | Print | Product List | Glossary On
Versions: 1 2 3 4 5 6 7 8 9 10 11 12 13 14 15 16 17 18 19 20 21 22 23 24 25 26 27 28 29 30 31 32 33 34 35 36 37 38 39 40 41 42 43 44 45 46 47 48 49 50
000
ASUS43 KMKX 070100
RWRWI

WISCONSIN REGIONAL WEATHER ROUNDUP
NATIONAL WEATHER SERVICE MILWAUKEE/SULLIVAN WI
800 PM CDT MON JUL 06 2015

NOTE: "FAIR" INDICATES FEW OR NO CLOUDS BELOW 12,000 FEET WITH NO
SIGNIFICANT WEATHER AND/OR OBSTRUCTIONS TO VISIBILITY.

WIZ001-002-006>008-014>016-023>028-070200-
NORTHWEST WISCONSIN

CITY           SKY/WX    TMP DP  RH WIND       PRES   REMARKS
SUPERIOR ARPT  MOCLDY    64  50  60 N10G20    29.96R
ASHLAND        MOCLDY    62  60  93 N3        29.93S FOG
HAYWARD        MOCLDY    63  57  81 N3        29.94S HAZE
SIREN          MOCLDY    66  53  61 N9        29.95R
CUMBERLAND     CLOUDY    63  55  77 N5        29.95R HAZE
RICE LAKE      MOCLDY    64  57  78 N5        29.95S HAZE
CHETEK         CLEAR     64  58  81 NW5       29.94S HAZE
LADYSMITH        N/A     62  56  81 N9        29.94S HAZE
EAU CLAIRE     NOT AVBL
MENOMONIE      PTCLDY    66  57  72 NW7       29.94R HAZE
NEW RICHMOND   PTCLDY    66  58  74 N6        29.96R HAZE
OSCEOLA        MOCLDY    68  56  65 NW9G20    29.98R
$$

WIZ003>005-009-010-017-018-070200-
NORTH CENTRAL WISCONSIN

CITY           SKY/WX    TMP DP  RH WIND       PRES   REMARKS
MANITOWISH WTR CLOUDY    58  57  99 N7        29.92R FOG
ARBOR VITAE    CLOUDY    59  57  92 N9        29.91R FOG
WOODRUFF       CLOUDY    59  57  92 N9        29.91R FOG
RHINELANDER    CLOUDY    59  55  87 N7        29.90R FOG
EAGLE RIVER    CLOUDY    57  55  94 N8        29.89S FOG
LAND O LAKES   CLOUDY    58  55  91 N9        29.91S FOG
PHILLIPS       CLOUDY    58  56  93 N8        29.92S FOG
TOMAHAWK       CLOUDY    59  55  88 N7        29.90S FOG
MEDFORD        CLOUDY    60  55  85 N14       29.91R HAZE
MERRILL        CLOUDY    61  58  90 N7        29.88S FOG
$$

WIZ029-030-035-036-043>047-070200-
CENTRAL WISCONSIN

CITY           SKY/WX    TMP DP  RH WIND       PRES   REMARKS
WAUSAU         CLOUDY    63  57  81 N9        29.87R HAZE
MOSINEE        CLOUDY    63  57  82 N14G20    29.88R FOG
MARSHFIELD     CLOUDY    64  55  72 N18G26    29.89R HAZE
STEVENS POINT  CLOUDY    61  58  91 N9        29.86R
WAUPACA        RAIN      74  73  96 W8        29.80R
WAUTOMA        NOT AVBL
WISC RAPIDS    CLOUDY    64  57  78 N12G23    29.88R
CAMP DOUGLAS   NOT AVBL
$$

WIZ011>013-019>022-031-037>040-048>050-070200-
NORTHEAST WISCONSIN

CITY           SKY/WX    TMP DP  RH WIND       PRES   REMARKS
ANTIGO         CLOUDY    59  57  94 N17       29.86R FOG
SHAWANO        CLOUDY    71  67  85 N20G25    29.79R
OCONTO         CLOUDY    72  72 100 SW8       29.74F
STURGEON BAY   CLOUDY    68  63  83 S7        29.79R
GREEN BAY      CLOUDY    75  71  87 W9        29.78R
MANITOWOC      NOT AVBL
APPLETON       MOCLDY    75  66  73 SW8       29.80S
CLINTONVILLE   CLOUDY    66  63  88 NW13G22   29.81R
OSHKOSH        CLOUDY    75  70  84 SW5       29.79S
$$

WIZ032>034-041-042-053>061-070200-
SOUTHWEST WISCONSIN

CITY           SKY/WX    TMP DP  RH WIND       PRES   REMARKS
LA CROSSE      CLOUDY    67  58  72 N17       29.90R HAZE
SPARTA         MOCLDY    64  59  82 NW7       29.90R
VIROQUA        CLOUDY    64  63  97 N12G25    29.89R
BOSCOBEL       CLOUDY    69  65  86 N13G22    29.86R
PRAIRIE DU CHI CLOUDY    69  62  77 NW15G25   29.86R
PLATTEVILLE    CLOUDY    74  73  95 W9        29.83R
$$

WIZ056-057-062-063-064-067-068-070200-
SOUTH CENTRAL WISCONSIN

CITY           SKY/WX    TMP DP  RH WIND       PRES   REMARKS
REEDSBURG      LGT RAIN  74  72  94 CALM      29.81R
BARABOO/DELLS  CLOUDY    72  69  90 CALM      29.81S
LONE ROCK      CLOUDY    73  72  94 VRB6      29.82S
MINERAL POINT  RAIN      77  72  83 SW7       29.82S
MADISON        MOCLDY    78  70  76 SW5       29.81R HX  80
MIDDLETON      CLOUDY    78  70  77 SW6       29.82R HX  80
WATERTOWN      CLOUDY    76  74  95 S7        29.81S
MONROE         CLOUDY    77  72  83 SW9       29.82F
JANESVILLE     MOCLDY    79  75  89 SW6       29.81F HX  82
$$

WIZ051-052-058>065-066-070>072-070200-
SOUTHEAST WISCONSIN

CITY           SKY/WX    TMP DP  RH WIND       PRES   REMARKS
MILWAUKEE      CLOUDY    76  69  79 SW8       29.82S
WAUKESHA       CLOUDY    73  68  83 SW8       29.83F
MILWAUKEE/TIMM MOCLDY    77  66  69 SW10      29.82F
RACINE         CLOUDY    75  69  81 S3        29.83F
BURLINGTON     CLOUDY    74  69  86 CALM      29.83S
KENOSHA        CLOUDY    76  71  85 SE3       29.82F
FOND DU LAC    CLOUDY    77  71  82 W6        29.80S
SHEBOYGAN      CLOUDY    78  69  73 SW9       29.79F HX  80
WEST BEND      CLOUDY    77  68  73 S6        29.81F
JUNEAU         CLOUDY    75  70  83 S8        29.82F
$$

LSZ147-162-070200-
LAKE SUPERIOR

STATION/POSITION TIME  TEMP    WIND        PRES    WAVE
                       AIR SEA DIR/SP/G            HT/PER
                 (UTC) (F)     (DEG/KT/KT) (MB)    (FT/S)
W MID LAKE BUOY  2350   49 39  280/  6/  8 1013.0S   0
DEVILS ISLAND    0000   60     270/  7/  9 1013.4R
PORT WING        0020   63     280/  5/  6 1013.9S
SAXON HARBOR     0000   61        CALM     1013.2S
$$

LMZ867-665-643>646-070200-
LAKE MICHIGAN

STATION/POSITION TIME  TEMP    WIND        PRES    WAVE
                       AIR SEA DIR/SP/G            HT/PER
                 (UTC) (F)     (DEG/KT/KT) (MB)    (FT/S)
CHAMBERS ISLAND  0000   68     150/  4/ 10 1007.8S
S GREEN BAY BUOY 0000   71 70  190/  4/  6 1009.0
N MID LAKE BUOY  2350   61 56  210/ 16/ 19 1007.9F   4/ 5
NORTHPORT PIER   0000   64     160/  7/ 11 1008.1S
SISTER BAY       2359   65     150/  8/ 12   N/A
ALGOMA LAKESHORE 2341          210/ 11/ 13   N/A
KEWAUNEE LAKESHO 0000   59     190/  9/ 11 1007.7F
SHEBOYGAN LAKESH 0000   67     180/ 14/ 14 1009.0R
PORT WASHINGTON  0000   79     250/  6/ 10 1010.2S
ATWATER BUOY     0000   75 59  210/ 12/ 14 1011.1F
MILWAUKEE LAKESH 0000   77     220/ 12/ 16   N/A
KENOSHA   LAKESH 0000   70     160/  6/  6 1009.8F
$$

TC  - TEMPERATURE IN CELSIUS
VSB - VISIBILITY IN STATUTE MILES
WCI - WIND CHILL INDEX
HX  - HEAT INDEX




USA.gov is the U.S. government's official web portal to all federal, state and local government web resources and services.